[[{"header":{"parameterUnit":"m.s-1","parameterCategory":1,"la1":30.2991,"la2":30.254,"lo1":-89.0895,"lo2":-89.0444,"dy":0.0017,"dx":0.0017,"nx":28,"ny":28,"refTime":"2025-06-21T21:00:00:Z","depth":0,"parameterNumber":2,"parameterNumberName":"U-component_of_WINDS"},"data":[0,0,0,0,0,0,0,0,0,0,0,0,0,0,0,0,0,0,0,0,0,0,0,0,0,0,0,0,0,0,0,0,0,0,0,0,0,0,0,0,0,0,0,0,0,0,0,0,0,0,0,0,0,0,0,0,0,0,-0.2894,-0.2895,0,-0.2971,-0.2971,-0.2972,-0.3001,-0.3001,-0.3001,-0.3001,-0.3083,-0.3085,-0.3087,0,0,0,0,0,0,0,0,0,0,0,0,0,-0.2777,-0.2779,-0.2894,-0.2895,-0.2896,-0.297,-0.2972,-0.2973,-0.3001,-0.3001,-0.3001,-0.3,-0.3082,-0.3085,-0.3088,0,0,0,0,0,0,0,0,0,0,0,0,0,-0.2838,-0.2779,-0.2894,-0.2919,-0.2922,-0.297,-0.2972,-0.2973,-0.3001,-0.3001,-0.3001,-0.3,-0.3081,-0.3084,-0.3088,-0.3118,0,0,-0.3099,-0.3101,0,0,0,0,0,0,0,0,-0.2834,-0.2842,-0.2914,-0.2917,-0.2921,-0.2976,-0.296,-0.3022,-0.3001,-0.2971,-0.3001,-0.3,-0.3048,-0.3054,-0.3069,-0.3122,-0.3125,-0.3099,-0.3102,-0.3103,-0.3104,0,0,0,0,0,0,0,-0.283,-0.2839,-0.2924,-0.2916,-0.2919,-0.2928,-0.2936,-0.2972,-0.3011,-0.2974,-0.2976,-0.2985,-0.3049,-0.3066,-0.3072,-0.3126,-0.3099,-0.3103,-0.3105,-0.3106,-0.3208,-0.3208,0,0,0,0,0,0,-0.2821,-0.2835,-0.2922,-0.2927,-0.2876,-0.293,-0.294,-0.2959,-0.301,-0.3018,-0.2985,-0.2986,-0.306,-0.3067,-0.3075,-0.3113,-0.3103,-0.3107,-0.3109,-0.3207,-0.3208,-0.3208,0,0,0,0,0,0,-0.2818,-0.2829,-0.2919,-0.2882,-0.2894,-0.2933,-0.2954,-0.296,-0.2977,-0.3019,-0.3026,-0.2994,-0.306,-0.3069,-0.3107,-0.3117,-0.3108,-0.3112,-0.3207,-0.3207,-0.3208,-0.3191,0,0,0,0,0,0,-0.2815,-0.2827,-0.2838,-0.2882,-0.2896,-0.2949,-0.2955,-0.2962,-0.2982,-0.2984,-0.3029,-0.3037,-0.306,-0.3101,-0.311,-0.3121,-0.3114,-0.3206,-0.3207,-0.3208,-0.319,-0.3191,-0.3191,0,0,0,0,0,-0.2811,-0.2831,-0.2839,-0.2849,-0.291,-0.2949,-0.2957,-0.2983,-0.2983,-0.2995,-0.3022,-0.3035,-0.3114,-0.3105,-0.3115,-0.3128,-0.3205,-0.3207,-0.3208,-0.319,-0.3191,-0.3191,0,0,0,0,0,0,-0.2789,-0.2837,-0.2846,-0.2881,-0.291,-0.2954,-0.297,-0.2982,-0.3014,-0.3014,-0.3046,-0.3056,-0.3091,-0.3113,-0.3102,-0.3159,-0.3161,-0.3164,-0.3144,-0.3144,-0.3144,-0.3139,-0.3117,0,0,0,0,0,-0.2788,-0.2815,-0.2856,-0.2882,-0.2897,-0.293,-0.2949,-0.2966,-0.2998,-0.3011,-0.3041,-0.3073,-0.3106,-0.3126,-0.3158,-0.3194,-0.3204,-0.3207,-0.3207,-0.3207,-0.321,-0.3232,-0.3234,-0.3212,-0.3212,-0.3212,0,0,-0.2787,-0.2816,-0.2831,-0.2879,-0.2904,-0.2932,-0.2941,-0.297,-0.2992,-0.3016,-0.3053,-0.3076,-0.3114,-0.3151,-0.3169,-0.3171,-0.3218,-0.3209,-0.3208,-0.3212,-0.3233,-0.3235,-0.3237,-0.3213,-0.3213,-0.3213,0,0,-0.2799,-0.2823,-0.2848,-0.2873,-0.291,-0.2933,-0.2939,-0.298,-0.2996,-0.3033,-0.3052,-0.3079,-0.3133,-0.316,-0.318,-0.3202,-0.3216,-0.3212,-0.3213,-0.3234,-0.3235,-0.3237,-0.3246,-0.3248,-0.3214,-0.3214,-0.3214,0,-0.2793,-0.2835,-0.286,-0.2888,-0.2909,-0.2931,-0.2958,-0.2981,-0.3027,-0.3041,-0.3042,-0.3111,-0.3138,-0.3182,-0.3187,-0.3203,-0.3212,-0.3207,-0.3233,-0.3235,-0.3237,-0.3245,-0.3248,-0.3214,-0.3214,-0.3214,-0.3214,0,-0.2826,-0.2855,-0.2871,-0.2914,-0.2936,-0.2964,-0.2994,-0.3014,-0.3029,-0.3052,-0.309,-0.3123,-0.3162,-0.3174,-0.3189,-0.322,-0.322,-0.3226,-0.3228,-0.3238,-0.3246,-0.325,-0.3213,-0.3213,-0.3213,-0.3213,0,0,-0.2828,-0.2883,-0.2889,-0.2909,-0.2951,-0.2975,-0.3004,-0.3041,-0.3058,-0.3089,-0.3115,-0.316,-0.3166,-0.3189,-0.3208,-0.3226,-0.3242,-0.323,-0.3232,-0.3232,-0.3279,-0.3274,-0.3278,-0.3251,-0.3252,-0.3252,-0.3276,0,-0.2846,-0.2897,-0.292,-0.2961,-0.2989,-0.301,-0.3035,-0.3065,-0.3086,-0.3114,-0.3139,-0.3171,-0.3176,-0.319,-0.3209,-0.3236,-0.3252,-0.3235,-0.3277,-0.3278,-0.3267,-0.3282,-0.3277,-0.3298,-0.3279,-0.328,-0.3281,0,-0.2875,-0.2904,-0.2948,-0.2987,-0.3,-0.3022,-0.3058,-0.3083,-0.3118,-0.3132,-0.3158,-0.3176,-0.3208,-0.3207,-0.3253,-0.324,-0.3259,-0.3275,-0.3276,-0.3282,-0.328,-0.3289,-0.3305,-0.3309,-0.3286,-0.3286,-0.3285,0,-0.2872,-0.2923,-0.2956,-0.2972,-0.3019,-0.3034,-0.3054,-0.3088,-0.3109,-0.3141,-0.3155,-0.319,-0.321,-0.3238,-0.3265,-0.3262,-0.3309,-0.331,-0.3323,-0.3322,-0.3333,-0.3332,-0.3353,-0.3343,-0.3343,-0.3343,-0.3343,0,-0.2891,-0.2917,-0.2955,-0.2976,-0.3006,-0.3033,-0.3062,-0.3084,-0.3114,-0.314,-0.3161,-0.3185,-0.3219,-0.3248,-0.327,-0.3305,-0.3313,-0.3327,-0.3333,-0.3326,-0.3324,-0.3339,-0.3339,-0.3344,-0.3344,-0.3343,-0.3343,0,-0.2894,-0.2921,-0.2958,-0.2998,-0.3009,-0.303,-0.3065,-0.3086,-0.3109,-0.3141,-0.315,-0.3186,-0.3221,-0.3251,-0.3297,-0.3312,-0.3348,-0.3355,-0.3336,-0.334,-0.3352,-0.335,-0.3384,-0.339,-0.3375,-0.3375,-0.3375,0,-0.2905,-0.2925,-0.2967,-0.2985,-0.3005,-0.3034,-0.3055,-0.3083,-0.3104,-0.3145,-0.3161,-0.3197,-0.3228,-0.3283,-0.3314,-0.3349,-0.3357,-0.3367,-0.3363,-0.3355,-0.3359,-0.3357,-0.336,-0.3367,-0.3367,-0.3367,-0.3367,0,-0.2921,-0.2933,-0.2962,-0.2995,-0.3019,-0.3047,-0.3076,-0.309,-0.3123,-0.3146,-0.3182,-0.3205,-0.3252,-0.3288,-0.3327,-0.3349,-0.3364,-0.3368,-0.3373,-0.3366,-0.3355,-0.3362,-0.3338,-0.3367,-0.3367,-0.3367,-0.3367,-0.3367,-0.2929,-0.2948,-0.2981,-0.3012,-0.3036,-0.3063,-0.3084,-0.3109,-0.3138,-0.3178,-0.3193,-0.3229,-0.3263,-0.3317,-0.334,-0.3369,-0.3372,-0.3379,-0.3381,-0.3382,-0.3382,-0.3349,-0.3377,-0.3377,-0.3377,-0.3377,-0.3377,0,-0.2947,-0.2969,-0.2998,-0.3036,-0.3061,-0.3071,-0.3104,-0.3124,-0.3156,-0.3186,-0.3215,-0.3256,-0.3291,-0.3324,-0.3361,-0.3379,-0.3386,-0.3387,-0.3387,-0.3392,-0.3377,-0.3369,-0.338,-0.338,-0.338,-0.338,-0.338,-0.338,-0.296,-0.2993,-0.3009,-0.3054,-0.3076,-0.3111,-0.3129,-0.3153,-0.3178,-0.3222,-0.325,-0.3271,-0.3303,-0.3343,-0.3376,-0.3385,-0.3398,-0.3397,-0.3408,-0.3394,-0.3393,-0.3392,-0.3385,-0.34,-0.34,-0.3421,-0.3421,-0.3421]},{"header":{"parameterUnit":"m.s-1","parameterCategory":1,"la1":30.2991,"la2":30.254,"lo1":-89.0895,"lo2":-89.0444,"dy":0.0017,"dx":0.0017,"nx":28,"ny":28,"refTime":"2025-06-21T21:00:00:Z","depth":0,"parameterNumber":3,"parameterNumberName":"V-component_of_WINDS"},"data":[0,0,0,0,0,0,0,0,0,0,0,0,0,0,0,0,0,0,0,0,0,0,0,0,0,0,0,0,0,0,0,0,0,0,0,0,0,0,0,0,0,0,0,0,0,0,0,0,0,0,0,0,0,0,0,0,0,0,1.8713,1.8714,0,1.8741,1.8741,1.8741,1.8696,1.8694,1.8693,1.8691,1.8718,1.872,1.8722,0,0,0,0,0,0,0,0,0,0,0,0,0,1.8618,1.862,1.8713,1.8714,1.8714,1.8741,1.8741,1.8742,1.8696,1.8694,1.8692,1.869,1.8717,1.872,1.8722,0,0,0,0,0,0,0,0,0,0,0,0,0,1.8654,1.862,1.8713,1.8694,1.8693,1.8741,1.8741,1.8742,1.8696,1.8694,1.8692,1.8689,1.8716,1.8719,1.8723,1.8789,0,0,1.8732,1.8734,0,0,0,0,0,0,0,0,1.8652,1.8657,1.8697,1.8696,1.8694,1.8712,1.8717,1.8758,1.8697,1.8695,1.8691,1.8688,1.8718,1.8721,1.8731,1.8791,1.8792,1.8733,1.8735,1.8736,1.8737,0,0,0,0,0,0,0,1.8649,1.8656,1.8724,1.8697,1.8696,1.8684,1.8686,1.8725,1.8719,1.8695,1.8692,1.8696,1.8717,1.8728,1.8731,1.8792,1.8733,1.8736,1.8738,1.8739,1.8906,1.8908,0,0,0,0,0,0,1.8649,1.8654,1.8723,1.8725,1.8667,1.8687,1.869,1.8709,1.8719,1.8718,1.8698,1.8694,1.8724,1.8728,1.8732,1.881,1.8736,1.8739,1.8741,1.8903,1.8906,1.8909,0,0,0,0,0,0,1.8648,1.8656,1.8722,1.8689,1.8696,1.8691,1.8713,1.8711,1.8722,1.8721,1.8719,1.8711,1.8722,1.8727,1.8775,1.881,1.8741,1.8744,1.89,1.8904,1.8908,1.8966,0,0,0,0,0,0,1.8645,1.8656,1.8682,1.869,1.8698,1.8766,1.8715,1.8713,1.8728,1.8723,1.8732,1.8732,1.8721,1.8771,1.8778,1.8813,1.8746,1.8897,1.8902,1.8906,1.8961,1.8971,1.898,0,0,0,0,0,1.8642,1.8697,1.8684,1.8692,1.8731,1.8768,1.8773,1.8759,1.8731,1.8757,1.8755,1.8731,1.8805,1.8776,1.8784,1.882,1.8895,1.8901,1.8906,1.8957,1.8969,1.898,0,0,0,0,0,0,1.8694,1.8698,1.8683,1.8743,1.8755,1.876,1.8792,1.8773,1.8794,1.8788,1.877,1.8772,1.8823,1.8827,1.8794,1.8885,1.8845,1.8853,1.8881,1.8893,1.8902,1.89,1.8749,0,0,0,0,0,1.8712,1.8743,1.8744,1.8797,1.8804,1.8797,1.8813,1.8801,1.8813,1.8818,1.8821,1.8833,1.8858,1.8876,1.8899,1.8961,1.8962,1.899,1.9,1.9008,1.9014,1.9045,1.9058,1.8927,1.8927,1.8927,0,0,1.8751,1.8757,1.8777,1.8808,1.8816,1.8847,1.8802,1.8837,1.8859,1.8824,1.8868,1.8871,1.8883,1.8937,1.8962,1.8942,1.905,1.9015,1.9021,1.9023,1.9052,1.9065,1.9076,1.8931,1.893,1.893,0,0,1.8836,1.8844,1.8888,1.8897,1.8911,1.8905,1.8916,1.8923,1.8923,1.8968,1.8942,1.8967,1.9012,1.9022,1.9032,1.912,1.9098,1.9128,1.9178,1.9208,1.9219,1.9228,1.9257,1.9269,1.9134,1.9135,1.9135,0,1.8882,1.8928,1.8913,1.895,1.8963,1.8932,1.8975,1.8985,1.9005,1.9015,1.8992,1.9047,1.9053,1.9109,1.913,1.914,1.915,1.9126,1.9219,1.9227,1.9235,1.9264,1.9275,1.9138,1.9138,1.9137,1.9137,0,1.8983,1.9015,1.9049,1.9069,1.9086,1.9126,1.9116,1.9135,1.9122,1.9118,1.9163,1.917,1.9193,1.9206,1.9193,1.9259,1.9246,1.9222,1.9181,1.9252,1.9278,1.9289,1.9143,1.9142,1.9141,1.914,0,0,1.9103,1.9113,1.9126,1.9134,1.9145,1.9169,1.9207,1.923,1.9246,1.9261,1.9291,1.9329,1.9306,1.9318,1.9306,1.9333,1.94,1.9305,1.9305,1.9322,1.9472,1.949,1.9503,1.9386,1.9388,1.939,1.947,0,1.9187,1.9252,1.9239,1.9303,1.9331,1.9301,1.9334,1.9344,1.9342,1.9365,1.9362,1.9389,1.9357,1.9363,1.9389,1.9387,1.943,1.9381,1.9413,1.9414,1.941,1.9516,1.9536,1.9612,1.948,1.9482,1.9484,0,1.9294,1.9312,1.9379,1.9384,1.9396,1.9425,1.9445,1.9468,1.9478,1.9474,1.9487,1.9469,1.9505,1.9465,1.9513,1.948,1.9492,1.9493,1.9496,1.9498,1.9453,1.952,1.9636,1.9647,1.95,1.9498,1.9497,0,1.9373,1.9414,1.9459,1.9467,1.9475,1.9496,1.95,1.9508,1.9522,1.9539,1.9548,1.9568,1.9579,1.9595,1.9583,1.9555,1.9633,1.9592,1.963,1.963,1.9648,1.9647,1.9766,1.9657,1.9657,1.9657,1.9656,0,1.9468,1.9509,1.9494,1.9522,1.9567,1.9551,1.9595,1.9596,1.9603,1.9629,1.9605,1.9629,1.9612,1.9635,1.9626,1.9667,1.9672,1.9669,1.9666,1.9671,1.9672,1.9679,1.9673,1.9659,1.9659,1.9658,1.9658,0,1.9564,1.9556,1.9602,1.9605,1.9607,1.964,1.9642,1.9667,1.9662,1.9696,1.9703,1.9695,1.9721,1.971,1.9738,1.9732,1.9784,1.9774,1.978,1.9777,1.9816,1.9812,1.9943,1.9959,1.984,1.9842,1.9843,0,1.9625,1.9656,1.9662,1.9678,1.9684,1.971,1.9724,1.9708,1.9724,1.9737,1.976,1.9784,1.9802,1.9844,1.9841,1.9861,1.9851,1.9896,1.9854,1.9858,1.9851,1.9849,1.9851,1.9904,1.9906,1.9907,1.9908,0,1.9733,1.9727,1.9749,1.9769,1.9786,1.9801,1.9814,1.9828,1.9813,1.9832,1.9858,1.9872,1.9899,1.9923,1.994,1.9943,1.9923,1.9921,1.993,1.9935,1.9937,1.9936,1.9802,1.9918,1.9917,1.9916,1.9915,1.9915,1.9813,1.9838,1.9846,1.9871,1.9878,1.9891,1.9914,1.9911,1.9933,1.9954,1.9944,1.9974,1.9981,2.0003,2.0009,2.0032,2.0014,2.0028,2.0032,2.0035,2.004,1.9934,2.0035,2.0035,2.0034,2.0034,2.0034,0,1.9919,1.9922,1.9945,1.9963,1.9982,1.9961,1.9973,1.999,2.0017,2.0026,2.0044,2.0073,2.0095,2.0093,2.0113,2.0132,2.0123,2.0138,2.0136,2.0137,2.0055,2.0044,2.0144,2.0144,2.0144,2.0144,2.0144,2.0144,1.9976,2.0018,2.0013,2.0057,2.006,2.009,2.0098,2.0109,2.0116,2.0149,2.0168,2.0166,2.017,2.019,2.0209,2.0208,2.0216,2.0235,2.023,2.0153,2.0142,2.0132,2.0122,2.0237,2.0237,2.0309,2.031,2.031]}]]